Regional Weather Roundup
Issued by NWS

Home | Current Version | Previous Version | Graphics & Text | Print | Product List | Glossary On
Versions: 1 2 3 4 5 6 7 8 9 10 11 12 13 14 15 16 17 18 19 20 21 22 23 24 25 26 27 28 29 30 31 32 33 34 35 36 37 38 39 40 41 42 43 44 45 46 47 48 49 50
372
ASUS44 KJAN 311910
RWRMS

MISSISSIPPI HOURLY WEATHER ROUNDUP
NATIONAL WEATHER SERVICE JACKSON MS
100 PM CST SAT JAN 31 2015

NOTE: "FAIR: INDICATES FEW OR NO CLOUDS BELOW 12,000 FEET WITH NO
SIGNIFICANT WEATHER AND/OR OBSTRUCTIONS TO VISIBILITY.

MSZ001>002-007>008-010>013-018>021-025>028-034>036-312000-
NORTHWEST MISSISSIPPI

CITY           SKY/WX    TMP DP  RH WIND       PRES   REMARKS
CLARKSDALE     CLOUDY    46  28  49 E6        30.29F
CLEVELAND      FAIR      48  30  49 E5        30.27F
GREENWOOD      PTSUNNY   57  21  24 SE8       30.25F
GREENVILLE     PTSUNNY   53  27  36 SE7       30.25F
GRENADA        FAIR      50  28  43 E7        30.28F
OLIVE BRANCH   CLOUDY    43  27  52 E8        30.29F
OXFORD         FAIR      48  21  34 E6        30.29F
TUNICA         CLOUDY    46  28  49 E3        30.29F
$$

MSZ003>006-009-014>017-022>024-029>033-037>039-312000-
NORTHEAST MISSISSIPPI

CITY           SKY/WX    TMP DP  RH WIND       PRES   REMARKS
COLUMBUS AFB   PTSUNNY   56  17  21 VRB5      30.29F
CORINTH        FAIR      48  23  37 CALM      30.29F
GOLDN TRIANGLE MOSUNNY   54  21  28 S9        30.30F
STARKVILLE     FAIR      54  23  30 SE6       30.29F
TUPELO         CLOUDY    52  19  27 E6        30.29F
$$

MSZ040-058-312000-
CENTRAL MISSISSIPPI

CITY           SKY/WX    TMP DP  RH WIND       PRES   REMARKS
JACKSON INTL   PTSUNNY   56  23  27 VRB7      30.26F
JACKSON HAWKNS MOSUNNY   55  24  30 SE9       30.26F
MERIDIAN KEY   SUNNY     57  18  21 NE7       30.28F
MERIDIAN NAS   SUNNY     56  19  23 NE6       30.30F
RAYMOND        FAIR      55  50  82 MISG      30.25F
VICKSBURG      PTSUNNY   57  26  30 SE9       30.24F
$$

MSZ059>079-312000-
SOUTH MISSISSIPPI

CITY           SKY/WX    TMP DP  RH WIND       PRES   REMARKS
BROOKHAVEN     FAIR      57  28  33 SE6       30.26F
HATTIESBURG    MOSUNNY   59  26  28 CALM      30.28F
MCCOMB         SUNNY     59  28  30 S8        30.24F
NATCHEZ        MOSUNNY   59  28  31 SE8       30.24F
PINE BELT      MOSUNNY   57  27  30 E6        30.28F
$$

MSZ080>082-312000-
COASTAL MISSISSIPPI

CITY           SKY/WX    TMP DP  RH WIND       PRES   REMARKS
BAY ST LOUIS   SUNNY     61  41  48 E13G18    30.27F
BILOXI         SUNNY     60  43  52 E16       30.26F
PASCAGOULA     SUNNY     60  41  49 SE9       30.27F
GULFPORT       SUNNY     59  43  55 E20       30.26F
$$



USA.gov is the U.S. government's official web portal to all federal, state and local government web resources and services.